owner,sensor,date,latitude,longitude,air_temperature,qcFlag 
ADCP,ioos:station:wmo:42390:1,2017-07-01T00:30:00Z,26.1290,-94.8980,28.3,11111222 
ADCP,ioos:station:wmo:42390:1,2017-07-01T02:30:00Z,26.1290,-94.8980,28.3,11111222 
ADCP,ioos:station:wmo:42390:1,2017-07-01T09:30:00Z,26.1290,-94.8980,28.3,11111222 
ADCP,ioos:station:wmo:42390:1,2017-07-01T10:30:00Z,26.1290,-94.8980,28.3,11111222 
ADCP,ioos:station:wmo:42390:1,2017-07-01T11:30:00Z,26.1290,-94.8980,28.3,11111222 
ADCP,ioos:station:wmo:42390:1,2017-07-01T12:30:00Z,26.1290,-94.8980,28.3,11111222 
ADCP,ioos:station:wmo:42390:1,2017-07-01T13:30:00Z,26.1290,-94.8980,28.3,11111222 
ADCP,ioos:station:wmo:42390:1,2017-07-01T14:30:00Z,26.1290,-94.8980,28.3,11111222 
ADCP,ioos:station:wmo:42390:1,2017-07-01T16:30:00Z,26.1290,-94.8980,28.3,11111222 
ADCP,ioos:station:wmo:42390:1,2017-07-01T17:30:00Z,26.1290,-94.8980,28.9,11111222 
ADCP,ioos:station:wmo:42390:1,2017-07-01T18:30:00Z,26.1290,-94.8980,28.9,11111222 
ADCP,ioos:station:wmo:42390:1,2017-07-01T19:30:00Z,26.1290,-94.8980,28.3,11111222 
ADCP,ioos:station:wmo:42390:1,2017-07-01T20:30:00Z,26.1290,-94.8980,28.9,11111222 
ADCP,ioos:station:wmo:42390:1,2017-07-01T23:30:00Z,26.1290,-94.8980,28.9,11111222 
ADCP,ioos:station:wmo:42390:1,2017-07-02T00:30:00Z,26.1290,-94.8980,28.3,11111222 
ADCP,ioos:station:wmo:42390:1,2017-07-02T01:30:00Z,26.1290,-94.8980,28.3,11111222 
ADCP,ioos:station:wmo:42390:1,2017-07-02T02:30:00Z,26.1290,-94.8980,28.3,11111222 
ADCP,ioos:station:wmo:42390:1,2017-07-02T04:30:00Z,26.1290,-94.8980,28.3,11111222 
ADCP,ioos:station:wmo:42390:1,2017-07-02T05:30:00Z,26.1290,-94.8980,28.3,11111222 
ADCP,ioos:station:wmo:42390:1,2017-07-02T06:30:00Z,26.1290,-94.8980,28.3,11111222 
ADCP,ioos:station:wmo:42390:1,2017-07-02T09:30:00Z,26.1290,-94.8980,28.3,11111222 
ADCP,ioos:station:wmo:42390:1,2017-07-02T10:30:00Z,26.1290,-94.8980,27.8,11111222 
ADCP,ioos:station:wmo:42390:1,2017-07-02T11:30:00Z,26.1290,-94.8980,27.8,11111222 
ADCP,ioos:station:wmo:42390:1,2017-07-02T12:30:00Z,26.1290,-94.8980,27.8,11111222 
ADCP,ioos:station:wmo:42390:1,2017-07-02T13:30:00Z,26.1290,-94.8980,28.3,11111222 
ADCP,ioos:station:wmo:42390:1,2017-07-02T16:30:00Z,26.1290,-94.8980,28.3,11111222 
ADCP,ioos:station:wmo:42390:1,2017-07-02T17:30:00Z,26.1290,-94.8980,28.3,11111222 
ADCP,ioos:station:wmo:42390:1,2017-07-02T20:30:00Z,26.1290,-94.8980,28.3,11111222 
ADCP,ioos:station:wmo:42390:1,2017-07-02T21:30:00Z,26.1290,-94.8980,28.9,11111222 
ADCP,ioos:station:wmo:42390:1,2017-07-03T02:30:00Z,26.1290,-94.8980,28.3,11111222 
ADCP,ioos:station:wmo:42390:1,2017-07-03T03:30:00Z,26.1290,-94.8980,28.3,11111222 
ADCP,ioos:station:wmo:42390:1,2017-07-03T04:30:00Z,26.1290,-94.8980,28.3,11111222 
ADCP,ioos:station:wmo:42390:1,2017-07-03T05:30:00Z,26.1290,-94.8980,28.3,11111222 
ADCP,ioos:station:wmo:42390:1,2017-07-03T06:30:00Z,26.1290,-94.8980,28.3,11111222 
ADCP,ioos:station:wmo:42390:1,2017-07-03T07:30:00Z,26.1290,-94.8980,28.3,11111222 
ADCP,ioos:station:wmo:42390:1,2017-07-03T09:30:00Z,26.1290,-94.8980,28.3,11111222 
ADCP,ioos:station:wmo:42390:1,2017-07-03T10:30:00Z,26.1290,-94.8980,28.3,11111222 
ADCP,ioos:station:wmo:42390:1,2017-07-03T11:30:00Z,26.1290,-94.8980,28.3,11111222 
ADCP,ioos:station:wmo:42390:1,2017-07-03T12:30:00Z,26.1290,-94.8980,28.3,11111222 
ADCP,ioos:station:wmo:42390:1,2017-07-03T16:30:00Z,26.1290,-94.8980,28.9,11111222 
ADCP,ioos:station:wmo:42390:1,2017-07-03T17:30:00Z,26.1290,-94.8980,28.3,11111222 
ADCP,ioos:station:wmo:42390:1,2017-07-03T18:30:00Z,26.1290,-94.8980,28.3,11111222 
ADCP,ioos:station:wmo:42390:1,2017-07-03T20:30:00Z,26.1290,-94.8980,28.3,11111222 
ADCP,ioos:station:wmo:42390:1,2017-07-03T22:30:00Z,26.1290,-94.8980,28.9,11111222 
ADCP,ioos:station:wmo:42390:1,2017-07-04T00:30:00Z,26.1290,-94.8980,28.3,11111222 
ADCP,ioos:station:wmo:42390:1,2017-07-04T04:30:00Z,26.1290,-94.8980,28.3,11111222 
ADCP,ioos:station:wmo:42390:1,2017-07-04T05:30:00Z,26.1290,-94.8980,28.3,11111222 
ADCP,ioos:station:wmo:42390:1,2017-07-04T06:30:00Z,26.1290,-94.8980,28.3,11111222 
ADCP,ioos:station:wmo:42390:1,2017-07-04T08:30:00Z,26.1290,-94.8980,28.3,11111222 
ADCP,ioos:station:wmo:42390:1,2017-07-04T10:30:00Z,26.1290,-94.8980,28.3,11111222 
ADCP,ioos:station:wmo:42390:1,2017-07-04T12:30:00Z,26.1290,-94.8980,28.3,11111222 
ADCP,ioos:station:wmo:42390:1,2017-07-04T14:30:00Z,26.1290,-94.8980,28.3,11111222 
ADCP,ioos:station:wmo:42390:1,2017-07-04T17:30:00Z,26.1290,-94.8980,28.3,11111222 
ADCP,ioos:station:wmo:42390:1,2017-07-04T20:30:00Z,26.1290,-94.8980,28.3,11111222 
ADCP,ioos:station:wmo:42390:1,2017-07-04T21:30:00Z,26.1290,-94.8980,28.3,11111222 
ADCP,ioos:station:wmo:42390:1,2017-07-04T23:30:00Z,26.1290,-94.8980,28.3,11111222 
ADCP,ioos:station:wmo:42390:1,2017-07-05T00:30:00Z,26.1290,-94.8980,28.3,11111222 
ADCP,ioos:station:wmo:42390:1,2017-07-05T01:30:00Z,26.1290,-94.8980,28.3,11111222 
ADCP,ioos:station:wmo:42390:1,2017-07-05T02:30:00Z,26.1290,-94.8980,28.3,11111222 
ADCP,ioos:station:wmo:42390:1,2017-07-05T03:30:00Z,26.1290,-94.8980,28.9,11111222 
ADCP,ioos:station:wmo:42390:1,2017-07-05T05:30:00Z,26.1290,-94.8980,28.3,11111222 
ADCP,ioos:station:wmo:42390:1,2017-07-05T06:30:00Z,26.1290,-94.8980,28.3,11111222 
ADCP,ioos:station:wmo:42390:1,2017-07-05T08:30:00Z,26.1290,-94.8980,28.3,11111222 
ADCP,ioos:station:wmo:42390:1,2017-07-05T09:30:00Z,26.1290,-94.8980,28.3,11111222 
ADCP,ioos:station:wmo:42390:1,2017-07-05T10:30:00Z,26.1290,-94.8980,28.3,11111222 
ADCP,ioos:station:wmo:42390:1,2017-07-05T11:30:00Z,26.1290,-94.8980,28.3,11111222 
ADCP,ioos:station:wmo:42390:1,2017-07-05T12:30:00Z,26.1290,-94.8980,28.3,11111222 
ADCP,ioos:station:wmo:42390:1,2017-07-05T13:30:00Z,26.1290,-94.8980,28.3,11111222 
ADCP,ioos:station:wmo:42390:1,2017-07-05T14:30:00Z,26.1290,-94.8980,28.9,11111222 
ADCP,ioos:station:wmo:42390:1,2017-07-05T15:30:00Z,26.1290,-94.8980,28.9,11111222 
ADCP,ioos:station:wmo:42390:1,2017-07-05T16:30:00Z,26.1290,-94.8980,28.9,11111222 
ADCP,ioos:station:wmo:42390:1,2017-07-05T17:30:00Z,26.1290,-94.8980,28.9,11111222 
ADCP,ioos:station:wmo:42390:1,2017-07-05T18:30:00Z,26.1290,-94.8980,28.9,11111222 
ADCP,ioos:station:wmo:42390:1,2017-07-05T19:30:00Z,26.1290,-94.8980,28.9,11111222 
ADCP,ioos:station:wmo:42390:1,2017-07-05T20:30:00Z,26.1290,-94.8980,28.9,11111222 
ADCP,ioos:station:wmo:42390:1,2017-07-05T22:30:00Z,26.1290,-94.8980,28.9,11111222 
ADCP,ioos:station:wmo:42390:1,2017-07-06T00:30:00Z,26.1290,-94.8980,28.9,11111222 
ADCP,ioos:station:wmo:42390:1,2017-07-06T04:30:00Z,26.1290,-94.8980,28.9,11111222 
ADCP,ioos:station:wmo:42390:1,2017-07-06T06:30:00Z,26.1290,-94.8980,28.3,11111222 
ADCP,ioos:station:wmo:42390:1,2017-07-06T07:30:00Z,26.1290,-94.8980,28.3,11111222 
ADCP,ioos:station:wmo:42390:1,2017-07-06T08:30:00Z,26.1290,-94.8980,28.3,11111222 
ADCP,ioos:station:wmo:42390:1,2017-07-06T09:30:00Z,26.1290,-94.8980,28.3,11111222 
ADCP,ioos:station:wmo:42390:1,2017-07-06T12:30:00Z,26.1290,-94.8980,27.8,11111222 
ADCP,ioos:station:wmo:42390:1,2017-07-06T13:30:00Z,26.1290,-94.8980,28.3,11111222 
ADCP,ioos:station:wmo:42390:1,2017-07-06T14:30:00Z,26.1290,-94.8980,28.9,11111222 
ADCP,ioos:station:wmo:42390:1,2017-07-06T17:30:00Z,26.1290,-94.8980,28.3,11111222 
ADCP,ioos:station:wmo:42390:1,2017-07-06T18:30:00Z,26.1290,-94.8980,28.9,11111222 
ADCP,ioos:station:wmo:42390:1,2017-07-06T19:30:00Z,26.1290,-94.8980,28.9,11111222 
ADCP,ioos:station:wmo:42390:1,2017-07-06T20:30:00Z,26.1290,-94.8980,28.9,11111222 
ADCP,ioos:station:wmo:42390:1,2017-07-06T21:30:00Z,26.1290,-94.8980,28.9,11111222 
ADCP,ioos:station:wmo:42390:1,2017-07-06T22:30:00Z,26.1290,-94.8980,28.9,11111222 
ADCP,ioos:station:wmo:42390:1,2017-07-06T23:30:00Z,26.1290,-94.8980,28.9,11111222 
ADCP,ioos:station:wmo:42390:1,2017-07-07T00:30:00Z,26.1290,-94.8980,28.9,11111222 
ADCP,ioos:station:wmo:42390:1,2017-07-07T01:30:00Z,26.1290,-94.8980,28.9,11111222 
ADCP,ioos:station:wmo:42390:1,2017-07-07T03:30:00Z,26.1290,-94.8980,28.9,11111222 
ADCP,ioos:station:wmo:42390:1,2017-07-07T04:30:00Z,26.1290,-94.8980,28.9,11111222 
ADCP,ioos:station:wmo:42390:1,2017-07-07T05:30:00Z,26.1290,-94.8980,28.3,11111222 
ADCP,ioos:station:wmo:42390:1,2017-07-07T06:30:00Z,26.1290,-94.8980,28.3,11111222 
ADCP,ioos:station:wmo:42390:1,2017-07-07T07:30:00Z,26.1290,-94.8980,28.3,11111222 
ADCP,ioos:station:wmo:42390:1,2017-07-07T08:30:00Z,26.1290,-94.8980,28.3,11111222 
ADCP,ioos:station:wmo:42390:1,2017-07-07T09:30:00Z,26.1290,-94.8980,28.3,11111222 
ADCP,ioos:station:wmo:42390:1,2017-07-07T10:30:00Z,26.1290,-94.8980,28.3,11111222 
ADCP,ioos:station:wmo:42390:1,2017-07-07T11:30:00Z,26.1290,-94.8980,28.3,11111222 
ADCP,ioos:station:wmo:42390:1,2017-07-07T12:30:00Z,26.1290,-94.8980,28.3,11111222 
ADCP,ioos:station:wmo:42390:1,2017-07-07T13:30:00Z,26.1290,-94.8980,28.9,11111222 
ADCP,ioos:station:wmo:42390:1,2017-07-07T14:30:00Z,26.1290,-94.8980,28.9,11111222 
ADCP,ioos:station:wmo:42390:1,2017-07-07T16:30:00Z,26.1290,-94.8980,28.9,11111222 
ADCP,ioos:station:wmo:42390:1,2017-07-07T17:30:00Z,26.1290,-94.8980,28.9,11111222 
ADCP,ioos:station:wmo:42390:1,2017-07-07T19:30:00Z,26.1290,-94.8980,27.2,11111222 
ADCP,ioos:station:wmo:42390:1,2017-07-07T20:30:00Z,26.1290,-94.8980,32.8,11111222 
ADCP,ioos:station:wmo:42390:1,2017-07-07T21:30:00Z,26.1290,-94.8980,30.6,11111222 
ADCP,ioos:station:wmo:42390:1,2017-07-07T22:30:00Z,26.1290,-94.8980,30.6,11111222 
ADCP,ioos:station:wmo:42390:1,2017-07-07T23:30:00Z,26.1290,-94.8980,30.0,11111222 
ADCP,ioos:station:wmo:42390:1,2017-07-08T01:30:00Z,26.1290,-94.8980,27.8,11111222 
ADCP,ioos:station:wmo:42390:1,2017-07-08T02:30:00Z,26.1290,-94.8980,27.8,11111222 
ADCP,ioos:station:wmo:42390:1,2017-07-08T03:30:00Z,26.1290,-94.8980,27.8,11111222 
ADCP,ioos:station:wmo:42390:1,2017-07-08T04:30:00Z,26.1290,-94.8980,28.3,11111222 
ADCP,ioos:station:wmo:42390:1,2017-07-08T05:30:00Z,26.1290,-94.8980,28.3,11111222 
ADCP,ioos:station:wmo:42390:1,2017-07-08T07:30:00Z,26.1290,-94.8980,28.3,11111222 
ADCP,ioos:station:wmo:42390:1,2017-07-08T08:30:00Z,26.1290,-94.8980,28.3,11111222 
ADCP,ioos:station:wmo:42390:1,2017-07-08T10:30:00Z,26.1290,-94.8980,28.3,11111222 
ADCP,ioos:station:wmo:42390:1,2017-07-08T11:30:00Z,26.1290,-94.8980,28.3,11111222 
ADCP,ioos:station:wmo:42390:1,2017-07-08T12:30:00Z,26.1290,-94.8980,27.2,11111222 
ADCP,ioos:station:wmo:42390:1,2017-07-08T14:30:00Z,26.1290,-94.8980,28.9,11111222 
ADCP,ioos:station:wmo:42390:1,2017-07-08T16:30:00Z,26.1290,-94.8980,28.9,11111222 
ADCP,ioos:station:wmo:42390:1,2017-07-08T17:30:00Z,26.1290,-94.8980,28.9,11111222 
ADCP,ioos:station:wmo:42390:1,2017-07-08T19:30:00Z,26.1290,-94.8980,28.9,11111222 
ADCP,ioos:station:wmo:42390:1,2017-07-08T20:30:00Z,26.1290,-94.8980,28.9,11111222 
ADCP,ioos:station:wmo:42390:1,2017-07-08T21:30:00Z,26.1290,-94.8980,29.4,11111222 
ADCP,ioos:station:wmo:42390:1,2017-07-09T00:30:00Z,26.1290,-94.8980,28.3,11111222 
ADCP,ioos:station:wmo:42390:1,2017-07-09T01:30:00Z,26.1290,-94.8980,28.9,11111222 
ADCP,ioos:station:wmo:42390:1,2017-07-09T02:30:00Z,26.1290,-94.8980,27.8,11111222 
ADCP,ioos:station:wmo:42390:1,2017-07-09T04:30:00Z,26.1290,-94.8980,28.3,11111222 
ADCP,ioos:station:wmo:42390:1,2017-07-09T06:30:00Z,26.1290,-94.8980,28.3,11111222 
ADCP,ioos:station:wmo:42390:1,2017-07-09T07:30:00Z,26.1290,-94.8980,28.3,11111222 
ADCP,ioos:station:wmo:42390:1,2017-07-09T08:30:00Z,26.1290,-94.8980,28.3,11111222 
ADCP,ioos:station:wmo:42390:1,2017-07-09T09:30:00Z,26.1290,-94.8980,28.3,11111222 
ADCP,ioos:station:wmo:42390:1,2017-07-09T10:30:00Z,26.1290,-94.8980,27.8,11111222 
ADCP,ioos:station:wmo:42390:1,2017-07-09T11:30:00Z,26.1290,-94.8980,28.3,11111222 
ADCP,ioos:station:wmo:42390:1,2017-07-09T12:30:00Z,26.1290,-94.8980,30.0,11111222 
ADCP,ioos:station:wmo:42390:1,2017-07-09T13:30:00Z,26.1290,-94.8980,28.9,11111222 
ADCP,ioos:station:wmo:42390:1,2017-07-09T14:30:00Z,26.1290,-94.8980,28.9,11111222 
ADCP,ioos:station:wmo:42390:1,2017-07-09T15:30:00Z,26.1290,-94.8980,28.9,11111222 
ADCP,ioos:station:wmo:42390:1,2017-07-09T16:30:00Z,26.1290,-94.8980,28.9,11111222 
ADCP,ioos:station:wmo:42390:1,2017-07-09T17:30:00Z,26.1290,-94.8980,28.9,11111222 
ADCP,ioos:station:wmo:42390:1,2017-07-09T18:30:00Z,26.1290,-94.8980,28.9,11111222 
ADCP,ioos:station:wmo:42390:1,2017-07-09T19:30:00Z,26.1290,-94.8980,28.9,11111222 
ADCP,ioos:station:wmo:42390:1,2017-07-09T20:30:00Z,26.1290,-94.8980,28.9,11111222 
ADCP,ioos:station:wmo:42390:1,2017-07-09T21:30:00Z,26.1290,-94.8980,28.9,11111222 
ADCP,ioos:station:wmo:42390:1,2017-07-09T22:30:00Z,26.1290,-94.8980,28.9,11111222 
ADCP,ioos:station:wmo:42390:1,2017-07-09T23:30:00Z,26.1290,-94.8980,28.9,11111222 
ADCP,ioos:station:wmo:42390:1,2017-07-10T01:30:00Z,26.1290,-94.8980,28.9,11111222 
ADCP,ioos:station:wmo:42390:1,2017-07-10T02:30:00Z,26.1290,-94.8980,28.9,11111222 
ADCP,ioos:station:wmo:42390:1,2017-07-10T03:30:00Z,26.1290,-94.8980,28.9,11111222 
ADCP,ioos:station:wmo:42390:1,2017-07-10T05:30:00Z,26.1290,-94.8980,28.9,11111222 
ADCP,ioos:station:wmo:42390:1,2017-07-10T06:30:00Z,26.1290,-94.8980,28.9,11111222 
ADCP,ioos:station:wmo:42390:1,2017-07-10T08:30:00Z,26.1290,-94.8980,28.3,11111222 
ADCP,ioos:station:wmo:42390:1,2017-07-10T10:30:00Z,26.1290,-94.8980,28.3,11111222 
ADCP,ioos:station:wmo:42390:1,2017-07-10T11:30:00Z,26.1290,-94.8980,28.3,11111222 
ADCP,ioos:station:wmo:42390:1,2017-07-10T12:30:00Z,26.1290,-94.8980,28.3,11111222 
ADCP,ioos:station:wmo:42390:1,2017-07-10T13:30:00Z,26.1290,-94.8980,28.9,11111222 
ADCP,ioos:station:wmo:42390:1,2017-07-10T14:30:00Z,26.1290,-94.8980,28.9,11111222 
ADCP,ioos:station:wmo:42390:1,2017-07-10T15:30:00Z,26.1290,-94.8980,28.3,11111222 
ADCP,ioos:station:wmo:42390:1,2017-07-10T18:30:00Z,26.1290,-94.8980,28.9,11111222 
ADCP,ioos:station:wmo:42390:1,2017-07-10T19:30:00Z,26.1290,-94.8980,28.9,11111222 
ADCP,ioos:station:wmo:42390:1,2017-07-10T21:30:00Z,26.1290,-94.8980,28.9,11111222 
ADCP,ioos:station:wmo:42390:1,2017-07-10T22:30:00Z,26.1290,-94.8980,28.9,11111222 
ADCP,ioos:station:wmo:42390:1,2017-07-10T23:30:00Z,26.1290,-94.8980,28.9,11111222 
ADCP,ioos:station:wmo:42390:1,2017-07-11T00:30:00Z,26.1290,-94.8980,28.9,11111222 
ADCP,ioos:station:wmo:42390:1,2017-07-11T01:30:00Z,26.1290,-94.8980,28.9,11111222 
ADCP,ioos:station:wmo:42390:1,2017-07-11T02:30:00Z,26.1290,-94.8980,28.9,11111222 
ADCP,ioos:station:wmo:42390:1,2017-07-11T04:30:00Z,26.1290,-94.8980,28.9,11111222 
ADCP,ioos:station:wmo:42390:1,2017-07-11T06:30:00Z,26.1290,-94.8980,28.9,11111222 
ADCP,ioos:station:wmo:42390:1,2017-07-11T07:30:00Z,26.1290,-94.8980,28.3,11111222 
ADCP,ioos:station:wmo:42390:1,2017-07-11T09:30:00Z,26.1290,-94.8980,28.3,11111222 
ADCP,ioos:station:wmo:42390:1,2017-07-11T10:30:00Z,26.1290,-94.8980,28.3,11111222 
ADCP,ioos:station:wmo:42390:1,2017-07-11T11:30:00Z,26.1290,-94.8980,28.9,11111222 
ADCP,ioos:station:wmo:42390:1,2017-07-11T12:30:00Z,26.1290,-94.8980,28.9,11111222 
ADCP,ioos:station:wmo:42390:1,2017-07-11T13:30:00Z,26.1290,-94.8980,28.9,11111222 
ADCP,ioos:station:wmo:42390:1,2017-07-11T15:30:00Z,26.1290,-94.8980,28.9,11111222 
ADCP,ioos:station:wmo:42390:1,2017-07-11T16:30:00Z,26.1290,-94.8980,28.9,11111222 
ADCP,ioos:station:wmo:42390:1,2017-07-11T17:30:00Z,26.1290,-94.8980,28.9,11111222 
ADCP,ioos:station:wmo:42390:1,2017-07-11T18:30:00Z,26.1290,-94.8980,28.9,11111222 
ADCP,ioos:station:wmo:42390:1,2017-07-11T19:30:00Z,26.1290,-94.8980,28.9,11111222 
ADCP,ioos:station:wmo:42390:1,2017-07-11T20:30:00Z,26.1290,-94.8980,28.9,11111222 
ADCP,ioos:station:wmo:42390:1,2017-07-11T22:30:00Z,26.1290,-94.8980,28.9,11111222 
ADCP,ioos:station:wmo:42390:1,2017-07-11T23:30:00Z,26.1290,-94.8980,28.9,11111222 
ADCP,ioos:station:wmo:42390:1,2017-07-12T00:30:00Z,26.1290,-94.8980,28.9,11111222 
ADCP,ioos:station:wmo:42390:1,2017-07-12T01:30:00Z,26.1290,-94.8980,28.9,11111222 
ADCP,ioos:station:wmo:42390:1,2017-07-12T02:30:00Z,26.1290,-94.8980,28.9,11111222 
ADCP,ioos:station:wmo:42390:1,2017-07-12T03:30:00Z,26.1290,-94.8980,28.9,11111222 
ADCP,ioos:station:wmo:42390:1,2017-07-12T04:30:00Z,26.1290,-94.8980,28.9,11111222 
ADCP,ioos:station:wmo:42390:1,2017-07-12T06:30:00Z,26.1290,-94.8980,28.9,11111222 
ADCP,ioos:station:wmo:42390:1,2017-07-12T07:30:00Z,26.1290,-94.8980,28.3,11111222 
ADCP,ioos:station:wmo:42390:1,2017-07-12T09:30:00Z,26.1290,-94.8980,28.3,11111222 
ADCP,ioos:station:wmo:42390:1,2017-07-12T10:30:00Z,26.1290,-94.8980,28.3,11111222 
ADCP,ioos:station:wmo:42390:1,2017-07-12T11:30:00Z,26.1290,-94.8980,28.3,11111222 
ADCP,ioos:station:wmo:42390:1,2017-07-12T12:30:00Z,26.1290,-94.8980,28.9,11111222 
ADCP,ioos:station:wmo:42390:1,2017-07-12T14:30:00Z,26.1290,-94.8980,28.9,11111222 
ADCP,ioos:station:wmo:42390:1,2017-07-12T15:30:00Z,26.1290,-94.8980,28.9,11111222 
ADCP,ioos:station:wmo:42390:1,2017-07-12T16:30:00Z,26.1290,-94.8980,28.9,11111222 
ADCP,ioos:station:wmo:42390:1,2017-07-12T17:30:00Z,26.1290,-94.8980,28.9,11111222 
ADCP,ioos:station:wmo:42390:1,2017-07-12T18:30:00Z,26.1290,-94.8980,29.4,11111222 
ADCP,ioos:station:wmo:42390:1,2017-07-12T19:30:00Z,26.1290,-94.8980,28.9,11111222 
ADCP,ioos:station:wmo:42390:1,2017-07-12T20:30:00Z,26.1290,-94.8980,28.9,11111222 
ADCP,ioos:station:wmo:42390:1,2017-07-12T21:30:00Z,26.1290,-94.8980,28.9,11111222 
ADCP,ioos:station:wmo:42390:1,2017-07-12T22:30:00Z,26.1290,-94.8980,28.9,11111222 
ADCP,ioos:station:wmo:42390:1,2017-07-12T23:30:00Z,26.1290,-94.8980,28.9,11111222 
ADCP,ioos:station:wmo:42390:1,2017-07-13T00:30:00Z,26.1290,-94.8980,28.9,11111222 
ADCP,ioos:station:wmo:42390:1,2017-07-13T01:30:00Z,26.1290,-94.8980,28.9,11111222 
ADCP,ioos:station:wmo:42390:1,2017-07-13T02:30:00Z,26.1290,-94.8980,28.9,11111222 
ADCP,ioos:station:wmo:42390:1,2017-07-13T03:30:00Z,26.1290,-94.8980,28.9,11111222 
ADCP,ioos:station:wmo:42390:1,2017-07-13T05:30:00Z,26.1290,-94.8980,28.9,11111222 
ADCP,ioos:station:wmo:42390:1,2017-07-13T06:30:00Z,26.1290,-94.8980,28.9,11111222 
ADCP,ioos:station:wmo:42390:1,2017-07-13T08:30:00Z,26.1290,-94.8980,28.9,11111222 
ADCP,ioos:station:wmo:42390:1,2017-07-13T09:30:00Z,26.1290,-94.8980,28.3,11111222 
ADCP,ioos:station:wmo:42390:1,2017-07-13T10:30:00Z,26.1290,-94.8980,28.9,11111222 
ADCP,ioos:station:wmo:42390:1,2017-07-13T11:30:00Z,26.1290,-94.8980,28.9,11111222 
ADCP,ioos:station:wmo:42390:1,2017-07-13T12:30:00Z,26.1290,-94.8980,28.9,11111222 
ADCP,ioos:station:wmo:42390:1,2017-07-13T13:30:00Z,26.1290,-94.8980,28.9,11111222 
ADCP,ioos:station:wmo:42390:1,2017-07-13T14:30:00Z,26.1290,-94.8980,28.9,11111222 
ADCP,ioos:station:wmo:42390:1,2017-07-13T15:30:00Z,26.1290,-94.8980,28.9,11111222 
ADCP,ioos:station:wmo:42390:1,2017-07-13T16:30:00Z,26.1290,-94.8980,28.9,11111222 
ADCP,ioos:station:wmo:42390:1,2017-07-13T17:30:00Z,26.1290,-94.8980,28.9,11111222 
ADCP,ioos:station:wmo:42390:1,2017-07-13T18:30:00Z,26.1290,-94.8980,29.4,11111222 
ADCP,ioos:station:wmo:42390:1,2017-07-13T19:30:00Z,26.1290,-94.8980,29.4,11111222 
ADCP,ioos:station:wmo:42390:1,2017-07-13T20:30:00Z,26.1290,-94.8980,29.4,11111222 
ADCP,ioos:station:wmo:42390:1,2017-07-13T21:30:00Z,26.1290,-94.8980,29.4,11111222 
ADCP,ioos:station:wmo:42390:1,2017-07-13T23:30:00Z,26.1290,-94.8980,29.4,11111222 
ADCP,ioos:station:wmo:42390:1,2017-07-14T00:30:00Z,26.1290,-94.8980,28.9,11111222 
ADCP,ioos:station:wmo:42390:1,2017-07-14T01:30:00Z,26.1290,-94.8980,29.4,11111222 
ADCP,ioos:station:wmo:42390:1,2017-07-14T02:30:00Z,26.1290,-94.8980,29.4,11111222 
ADCP,ioos:station:wmo:42390:1,2017-07-14T03:30:00Z,26.1290,-94.8980,29.4,11111222 
ADCP,ioos:station:wmo:42390:1,2017-07-14T04:30:00Z,26.1290,-94.8980,28.9,11111222 
ADCP,ioos:station:wmo:42390:1,2017-07-14T05:30:00Z,26.1290,-94.8980,29.4,11111222 
ADCP,ioos:station:wmo:42390:1,2017-07-14T06:30:00Z,26.1290,-94.8980,28.9,11111222 
ADCP,ioos:station:wmo:42390:1,2017-07-14T07:30:00Z,26.1290,-94.8980,28.9,11111222 
ADCP,ioos:station:wmo:42390:1,2017-07-14T10:30:00Z,26.1290,-94.8980,28.9,11111222 
ADCP,ioos:station:wmo:42390:1,2017-07-14T12:30:00Z,26.1290,-94.8980,28.9,11111222 
ADCP,ioos:station:wmo:42390:1,2017-07-14T14:30:00Z,26.1290,-94.8980,28.9,11111222 
ADCP,ioos:station:wmo:42390:1,2017-07-14T15:30:00Z,26.1290,-94.8980,28.9,11111222 
ADCP,ioos:station:wmo:42390:1,2017-07-14T16:30:00Z,26.1290,-94.8980,28.9,11111222 
ADCP,ioos:station:wmo:42390:1,2017-07-14T17:30:00Z,26.1290,-94.8980,28.9,11111222 
ADCP,ioos:station:wmo:42390:1,2017-07-14T18:30:00Z,26.1290,-94.8980,28.9,11111222 
ADCP,ioos:station:wmo:42390:1,2017-07-14T19:30:00Z,26.1290,-94.8980,28.9,11111222 
ADCP,ioos:station:wmo:42390:1,2017-07-14T20:30:00Z,26.1290,-94.8980,28.9,11111222 
ADCP,ioos:station:wmo:42390:1,2017-07-14T21:30:00Z,26.1290,-94.8980,28.3,11111222 
ADCP,ioos:station:wmo:42390:1,2017-07-14T22:30:00Z,26.1290,-94.8980,28.3,11111222 
ADCP,ioos:station:wmo:42390:1,2017-07-15T01:30:00Z,26.1290,-94.8980,28.3,11111222 
ADCP,ioos:station:wmo:42390:1,2017-07-15T02:30:00Z,26.1290,-94.8980,28.3,11111222 
ADCP,ioos:station:wmo:42390:1,2017-07-15T03:30:00Z,26.1290,-94.8980,28.3,11111222 
ADCP,ioos:station:wmo:42390:1,2017-07-15T06:30:00Z,26.1290,-94.8980,28.3,11111222 
ADCP,ioos:station:wmo:42390:1,2017-07-15T07:30:00Z,26.1290,-94.8980,28.3,11111222 
ADCP,ioos:station:wmo:42390:1,2017-07-15T08:30:00Z,26.1290,-94.8980,28.3,11111222 
ADCP,ioos:station:wmo:42390:1,2017-07-15T09:30:00Z,26.1290,-94.8980,28.3,11111222 
ADCP,ioos:station:wmo:42390:1,2017-07-15T11:30:00Z,26.1290,-94.8980,28.3,11111222 
ADCP,ioos:station:wmo:42390:1,2017-07-15T13:30:00Z,26.1290,-94.8980,28.9,11111222 
ADCP,ioos:station:wmo:42390:1,2017-07-15T14:30:00Z,26.1290,-94.8980,29.4,11111222 
ADCP,ioos:station:wmo:42390:1,2017-07-15T15:30:00Z,26.1290,-94.8980,29.4,11111222 
ADCP,ioos:station:wmo:42390:1,2017-07-15T16:30:00Z,26.1290,-94.8980,29.4,11111222 
ADCP,ioos:station:wmo:42390:1,2017-07-15T17:30:00Z,26.1290,-94.8980,29.4,11111222 
ADCP,ioos:station:wmo:42390:1,2017-07-15T18:30:00Z,26.1290,-94.8980,29.4,11111222 
ADCP,ioos:station:wmo:42390:1,2017-07-15T19:30:00Z,26.1290,-94.8980,29.4,11111222 
ADCP,ioos:station:wmo:42390:1,2017-07-15T20:30:00Z,26.1290,-94.8980,29.4,11111222 
ADCP,ioos:station:wmo:42390:1,2017-07-15T21:30:00Z,26.1290,-94.8980,29.4,11111222 
ADCP,ioos:station:wmo:42390:1,2017-07-16T00:30:00Z,26.1290,-94.8980,29.4,11111222 
ADCP,ioos:station:wmo:42390:1,2017-07-16T01:30:00Z,26.1290,-94.8980,29.4,11111222 
ADCP,ioos:station:wmo:42390:1,2017-07-16T02:30:00Z,26.1290,-94.8980,29.4,11111222 
ADCP,ioos:station:wmo:42390:1,2017-07-16T03:30:00Z,26.1290,-94.8980,29.4,11111222 
ADCP,ioos:station:wmo:42390:1,2017-07-16T04:30:00Z,26.1290,-94.8980,29.4,11111222 
ADCP,ioos:station:wmo:42390:1,2017-07-16T05:30:00Z,26.1290,-94.8980,28.9,11111222 
ADCP,ioos:station:wmo:42390:1,2017-07-16T06:30:00Z,26.1290,-94.8980,28.9,11111222 
ADCP,ioos:station:wmo:42390:1,2017-07-16T07:30:00Z,26.1290,-94.8980,28.9,11111222 
ADCP,ioos:station:wmo:42390:1,2017-07-16T08:30:00Z,26.1290,-94.8980,28.9,11111222 
ADCP,ioos:station:wmo:42390:1,2017-07-16T09:30:00Z,26.1290,-94.8980,30.0,11111222 
ADCP,ioos:station:wmo:42390:1,2017-07-16T10:30:00Z,26.1290,-94.8980,31.1,11111222 
ADCP,ioos:station:wmo:42390:1,2017-07-16T11:30:00Z,26.1290,-94.8980,30.6,11111222 
ADCP,ioos:station:wmo:42390:1,2017-07-16T13:30:00Z,26.1290,-94.8980,34.4,11111222 
ADCP,ioos:station:wmo:42390:1,2017-07-16T18:30:00Z,26.1290,-94.8980,32.2,11111222 
ADCP,ioos:station:wmo:42390:1,2017-07-16T23:30:00Z,26.1290,-94.8980,32.2,11111222 
ADCP,ioos:station:wmo:42390:1,2017-07-17T00:30:00Z,26.1290,-94.8980,32.2,11111222 
ADCP,ioos:station:wmo:42390:1,2017-07-17T02:30:00Z,26.1290,-94.8980,32.2,11111222 
ADCP,ioos:station:wmo:42390:1,2017-07-17T04:30:00Z,26.1290,-94.8980,32.2,11111222 
ADCP,ioos:station:wmo:42390:1,2017-07-17T05:30:00Z,26.1290,-94.8980,32.2,11111222 
ADCP,ioos:station:wmo:42390:1,2017-07-17T07:30:00Z,26.1290,-94.8980,32.2,11111222 
ADCP,ioos:station:wmo:42390:1,2017-07-17T08:30:00Z,26.1290,-94.8980,32.2,11111222 
ADCP,ioos:station:wmo:42390:1,2017-07-17T09:30:00Z,26.1290,-94.8980,32.2,11111222 
ADCP,ioos:station:wmo:42390:1,2017-07-17T10:30:00Z,26.1290,-94.8980,29.4,11111222 